Time,TemperatureF,DewpointF,PressureIn,WindDirection,WindDirectionDegrees,WindSpeedMPH,WindSpeedGustMPH,Humidity,HourlyPrecipIn,Conditions,Clouds,dailyrainin,SoftwareType,DateUTC
2013-07-09 00:13:00,66.3,47.0,20.45,East,96,0.0,1.0,51,0.00,,,0.00,weatherlink.com 1.10,2013-07-09 06:13:00,
2013-07-09 00:28:00,65.7,47.0,20.45,East,96,0.0,1.0,52,0.00,,,0.00,weatherlink.com 1.10,2013-07-09 06:28:00,
2013-07-09 00:43:00,65.2,47.0,20.45,East,96,0.0,0.0,53,0.00,,,0.00,weatherlink.com 1.10,2013-07-09 06:43:00,
2013-07-09 00:58:00,65.0,48.0,20.44,East,96,0.0,1.0,54,0.00,,,0.00,weatherlink.com 1.10,2013-07-09 06:58:00,
2013-07-09 01:13:00,64.7,47.0,20.44,East,96,0.0,3.0,54,0.00,,,0.00,weatherlink.com 1.10,2013-07-09 07:13:00,
2013-07-09 01:28:00,63.9,48.0,20.44,East,96,0.0,1.0,56,0.00,,,0.00,weatherlink.com 1.10,2013-07-09 07:28:00,
2013-07-09 01:43:00,64.2,48.0,20.44,East,96,0.0,3.0,56,0.00,,,0.00,weatherlink.com 1.10,2013-07-09 07:43:00,
2013-07-09 01:58:00,64.5,48.0,20.44,East,96,0.0,5.0,56,0.00,,,0.00,weatherlink.com 1.10,2013-07-09 07:58:00,
2013-07-09 02:13:00,64.4,49.0,20.43,East,95,0.0,6.0,57,0.00,,,0.00,weatherlink.com 1.10,2013-07-09 08:13:00,
2013-07-09 02:28:00,64.3,49.0,20.43,East,96,1.0,2.0,57,0.00,,,0.00,weatherlink.com 1.10,2013-07-09 08:28:00,
2013-07-09 02:44:00,63.7,49.0,20.43,East,95,2.0,5.0,59,0.00,,,0.00,weatherlink.com 1.10,2013-07-09 08:44:00,
2013-07-09 02:59:00,64.1,49.0,20.43,East,96,0.0,5.0,58,0.00,,,0.00,weatherlink.com 1.10,2013-07-09 08:59:00,
2013-07-09 03:14:00,63.4,49.0,20.43,East,96,0.0,0.0,59,0.00,,,0.00,weatherlink.com 1.10,2013-07-09 09:14:00,
2013-07-09 03:29:00,62.4,48.0,20.43,East,95,0.0,0.0,60,0.00,,,0.00,weatherlink.com 1.10,2013-07-09 09:29:00,
2013-07-09 03:44:00,61.7,49.0,20.43,East,95,0.0,3.0,63,0.00,,,0.00,weatherlink.com 1.10,2013-07-09 09:44:00,
2013-07-09 03:59:00,61.5,48.0,20.43,East,95,0.0,2.0,62,0.00,,,0.00,weatherlink.com 1.10,2013-07-09 09:59:00,
2013-07-09 04:14:00,61.6,49.0,20.43,East,96,0.0,0.0,63,0.00,,,0.00,weatherlink.com 1.10,2013-07-09 10:14:00,
2013-07-09 04:29:00,61.8,49.0,20.43,East,95,1.0,7.0,63,0.00,,,0.00,weatherlink.com 1.10,2013-07-09 10:29:00,
2013-07-09 04:43:00,61.7,49.0,20.44,East,96,0.0,1.0,63,0.00,,,0.00,weatherlink.com 1.10,2013-07-09 10:43:00,
2013-07-09 04:59:00,61.0,49.0,20.43,East,95,0.0,1.0,64,0.00,,,0.00,weatherlink.com 1.10,2013-07-09 10:59:00,
2013-07-09 05:14:00,61.5,49.0,20.43,East,95,0.0,1.0,64,0.00,,,0.00,weatherlink.com 1.10,2013-07-09 11:14:00,
2013-07-09 05:29:00,61.3,49.0,20.43,East,95,0.0,0.0,64,0.00,,,0.00,weatherlink.com 1.10,2013-07-09 11:29:00,
2013-07-09 05:44:00,60.3,49.0,20.43,East,96,0.0,1.0,66,0.00,,,0.00,weatherlink.com 1.10,2013-07-09 11:44:00,
2013-07-09 05:59:00,60.2,49.0,20.44,East,95,0.0,0.0,67,0.00,,,0.00,weatherlink.com 1.10,2013-07-09 11:59:00,
2013-07-09 06:14:00,60.2,49.0,20.44,East,96,0.0,0.0,67,0.00,,,0.00,weatherlink.com 1.10,2013-07-09 12:14:00,
2013-07-09 06:29:00,60.2,50.0,20.45,East,96,0.0,0.0,68,0.00,,,0.00,weatherlink.com 1.10,2013-07-09 12:29:00,
2013-07-09 06:44:00,60.6,50.0,20.45,East,96,0.0,0.0,68,0.00,,,0.00,weatherlink.com 1.10,2013-07-09 12:44:00,
2013-07-09 06:59:00,61.5,50.0,20.46,East,96,0.0,0.0,66,0.00,,,0.00,weatherlink.com 1.10,2013-07-09 12:59:00,
2013-07-09 07:14:00,62.3,51.0,20.46,East,96,0.0,1.0,66,0.00,,,0.00,weatherlink.com 1.10,2013-07-09 13:14:00,
2013-07-09 07:29:00,62.8,51.0,20.46,East,96,0.0,1.0,65,0.00,,,0.00,weatherlink.com 1.10,2013-07-09 13:29:00,
2013-07-09 07:44:00,63.8,51.0,20.46,East,95,0.0,1.0,63,0.00,,,0.00,weatherlink.com 1.10,2013-07-09 13:44:00,
2013-07-09 07:59:00,64.9,51.0,20.47,East,95,0.0,1.0,60,0.00,,,0.00,weatherlink.com 1.10,2013-07-09 13:59:00,
2013-07-09 08:14:00,66.1,51.0,20.47,East,95,0.0,1.0,59,0.00,,,0.00,weatherlink.com 1.10,2013-07-09 14:14:00,
2013-07-09 08:29:00,67.3,51.0,20.48,East,95,0.0,1.0,56,0.00,,,0.00,weatherlink.com 1.10,2013-07-09 14:29:00,
2013-07-09 08:44:00,68.8,51.0,20.48,East,96,0.0,2.0,54,0.00,,,0.00,weatherlink.com 1.10,2013-07-09 14:44:00,
2013-07-09 08:59:00,69.4,52.0,20.48,East,94,0.0,5.0,54,0.00,,,0.00,weatherlink.com 1.10,2013-07-09 14:59:00,
2013-07-09 09:14:00,69.2,52.0,20.48,East,93,2.0,3.0,54,0.00,,,0.00,weatherlink.com 1.10,2013-07-09 15:14:00,
2013-07-09 09:29:00,69.9,52.0,20.48,East,92,0.0,5.0,54,0.00,,,0.00,weatherlink.com 1.10,2013-07-09 15:29:00,
2013-07-09 09:44:00,71.8,53.0,20.48,East,85,3.0,6.0,51,0.00,,,0.00,weatherlink.com 1.10,2013-07-09 15:44:00,
2013-07-09 10:00:00,72.4,52.0,20.48,ENE,71,0.0,7.0,49,0.00,,,0.00,weatherlink.com 1.10,2013-07-09 16:00:00,
2013-07-09 10:15:00,73.9,52.0,20.47,NE,51,1.0,5.0,47,0.00,,,0.00,weatherlink.com 1.10,2013-07-09 16:15:00,
2013-07-09 10:30:00,75.6,53.0,20.47,North,11,3.0,6.0,46,0.00,,,0.00,weatherlink.com 1.10,2013-07-09 16:30:00,
2013-07-09 10:45:00,77.2,53.0,20.46,North,360,0.0,6.0,43,0.00,,,0.00,weatherlink.com 1.10,2013-07-09 16:45:00,
2013-07-09 11:00:00,77.5,53.0,20.46,NNW,333,1.0,8.0,42,0.00,,,0.00,weatherlink.com 1.10,2013-07-09 17:00:00,
2013-07-09 11:15:00,79.6,52.0,20.46,NW,319,2.0,9.0,39,0.00,,,0.00,weatherlink.com 1.10,2013-07-09 17:15:00,
2013-07-09 11:30:00,80.2,53.0,20.45,NNW,339,4.0,8.0,39,0.00,,,0.00,weatherlink.com 1.10,2013-07-09 17:30:00,
2013-07-09 11:45:00,81.2,53.0,20.44,NNW,340,7.0,9.0,38,0.00,,,0.00,weatherlink.com 1.10,2013-07-09 17:45:00,
2013-07-09 12:00:00,81.5,53.0,20.44,NNW,327,0.0,9.0,37,0.00,,,0.00,weatherlink.com 1.10,2013-07-09 18:00:00,
2013-07-09 12:16:00,83.8,53.0,20.43,NW,306,4.0,9.0,35,0.00,,,0.00,weatherlink.com 1.10,2013-07-09 18:16:00,
2013-07-09 12:30:00,85.0,53.0,20.42,NW,322,5.0,9.0,33,0.00,,,0.00,weatherlink.com 1.10,2013-07-09 18:30:00,
2013-07-09 12:45:00,86.5,52.0,20.41,NNW,344,3.0,9.0,30,0.00,,,0.00,weatherlink.com 1.10,2013-07-09 18:45:00,
2013-07-09 13:00:00,87.6,52.0,20.40,North,349,2.0,9.0,29,0.00,,,0.00,weatherlink.com 1.10,2013-07-09 19:00:00,
2013-07-09 13:15:00,89.3,50.0,20.40,North,355,1.0,11.0,26,0.00,,,0.00,weatherlink.com 1.10,2013-07-09 19:15:00,
2013-07-09 13:30:00,89.3,49.0,20.39,NNW,331,0.0,14.0,25,0.00,,,0.00,weatherlink.com 1.10,2013-07-09 19:30:00,
2013-07-09 13:45:00,87.1,48.0,20.38,WNW,298,0.0,4.0,26,0.00,,,0.00,weatherlink.com 1.10,2013-07-09 19:45:00,
2013-07-09 14:00:00,85.8,48.0,20.39,SW,232,9.0,9.0,27,0.00,,,0.00,weatherlink.com 1.10,2013-07-09 20:00:00,
2013-07-09 14:15:00,84.7,49.0,20.39,South,186,8.0,9.0,29,0.00,,,0.00,weatherlink.com 1.10,2013-07-09 20:15:00,
2013-07-09 14:30:00,78.0,48.0,20.39,SSE,167,8.0,17.0,35,0.00,,,0.00,weatherlink.com 1.10,2013-07-09 20:30:00,
2013-07-09 14:45:00,79.1,50.0,20.39,South,176,7.0,11.0,36,0.00,,,0.00,weatherlink.com 1.10,2013-07-09 20:45:00,
2013-07-09 15:00:00,77.6,50.0,20.39,SSE,168,7.0,14.0,38,0.00,,,0.00,weatherlink.com 1.10,2013-07-09 21:00:00,
2013-07-09 15:15:00,77.6,49.0,20.39,SSE,168,5.0,10.0,36,0.00,,,0.00,weatherlink.com 1.10,2013-07-09 21:15:00,
2013-07-09 15:30:00,79.3,48.0,20.40,SSE,168,0.0,4.0,33,0.00,,,0.00,weatherlink.com 1.10,2013-07-09 21:30:00,
2013-07-09 15:45:00,78.7,50.0,20.40,NW,322,0.0,8.0,36,0.00,,,0.00,weatherlink.com 1.10,2013-07-09 21:45:00,
2013-07-09 16:00:00,78.7,49.0,20.41,NW,318,0.0,4.0,35,0.00,,,0.00,weatherlink.com 1.10,2013-07-09 22:00:00,
2013-07-09 16:16:00,79.3,49.0,20.41,ESE,121,1.0,9.0,34,0.00,,,0.00,weatherlink.com 1.10,2013-07-09 22:16:00,
2013-07-09 16:30:00,78.7,46.0,20.41,SSE,149,0.0,8.0,32,0.00,,,0.00,weatherlink.com 1.10,2013-07-09 22:30:00,
2013-07-09 16:45:00,77.5,50.0,20.42,ENE,74,5.0,9.0,38,0.00,,,0.00,weatherlink.com 1.10,2013-07-09 22:45:00,
2013-07-09 17:00:00,74.7,51.0,20.43,ESE,105,2.0,13.0,43,0.00,,,0.00,weatherlink.com 1.10,2013-07-09 23:00:00,
2013-07-09 17:15:00,71.0,51.0,20.43,East,97,11.0,14.0,50,0.00,,,0.00,weatherlink.com 1.10,2013-07-09 23:15:00,
2013-07-09 17:31:00,71.4,51.0,20.42,East,82,10.0,15.0,48,0.00,,,0.00,weatherlink.com 1.10,2013-07-09 23:31:00,
2013-07-09 17:45:00,74.2,49.0,20.42,ESE,109,3.0,17.0,41,0.00,,,0.00,weatherlink.com 1.10,2013-07-09 23:45:00,
2013-07-09 18:00:00,78.7,49.0,20.40,SE,128,10.0,15.0,35,0.00,,,0.00,weatherlink.com 1.10,2013-07-10 00:00:00,
2013-07-09 18:16:00,81.8,47.0,20.38,SSE,149,9.0,13.0,30,0.00,,,0.00,weatherlink.com 1.10,2013-07-10 00:16:00,
2013-07-09 18:32:00,82.1,46.0,20.37,ESE,115,3.0,11.0,28,0.00,,,0.00,weatherlink.com 1.10,2013-07-10 00:32:00,
2013-07-09 18:46:00,81.4,48.0,20.37,SSE,168,7.0,10.0,31,0.00,,,0.00,weatherlink.com 1.10,2013-07-10 00:46:00,
2013-07-09 19:02:00,80.1,47.0,20.37,SE,144,4.0,9.0,31,0.00,,,0.00,weatherlink.com 1.10,2013-07-10 01:02:00,
2013-07-09 19:16:00,80.7,52.0,20.38,NW,304,3.0,9.0,37,0.00,,,0.00,weatherlink.com 1.10,2013-07-10 01:16:00,
2013-07-09 19:32:00,79.0,49.0,20.38,NNE,21,1.0,2.0,35,0.00,,,0.00,weatherlink.com 1.10,2013-07-10 01:32:00,
2013-07-09 19:46:00,77.6,49.0,20.38,NNE,21,0.0,4.0,36,0.00,,,0.00,weatherlink.com 1.10,2013-07-10 01:46:00,
2013-07-09 20:02:00,75.8,50.0,20.39,NNE,21,0.0,1.0,41,0.00,,,0.00,weatherlink.com 1.10,2013-07-10 02:02:00,
2013-07-09 20:16:00,73.9,49.0,20.39,NNE,21,0.0,4.0,41,0.00,,,0.00,weatherlink.com 1.10,2013-07-10 02:16:00,
2013-07-09 20:31:00,73.2,49.0,20.40,NE,37,5.0,6.0,43,0.00,,,0.00,weatherlink.com 1.10,2013-07-10 02:31:00,
2013-07-09 20:46:00,73.7,47.0,20.39,NE,52,0.0,3.0,39,0.00,,,0.00,weatherlink.com 1.10,2013-07-10 02:46:00,
2013-07-09 21:01:00,72.5,49.0,20.40,NE,52,0.0,1.0,43,0.00,,,0.00,weatherlink.com 1.10,2013-07-10 03:01:00,
2013-07-09 21:16:00,70.9,48.0,20.40,NE,52,0.0,1.0,44,0.00,,,0.00,weatherlink.com 1.10,2013-07-10 03:16:00,
2013-07-09 21:31:00,69.3,47.0,20.40,NE,52,0.0,1.0,45,0.00,,,0.00,weatherlink.com 1.10,2013-07-10 03:31:00,
2013-07-09 21:46:00,67.7,47.0,20.43,NE,52,1.0,3.0,47,0.00,,,0.00,weatherlink.com 1.10,2013-07-10 03:46:00,
2013-07-09 22:01:00,70.7,48.0,20.43,ESE,105,4.0,11.0,45,0.00,,,0.00,weatherlink.com 1.10,2013-07-10 04:01:00,
2013-07-09 22:16:00,72.0,48.0,20.42,ESE,106,4.0,17.0,42,0.00,,,0.00,weatherlink.com 1.10,2013-07-10 04:16:00,
2013-07-09 22:31:00,73.1,47.0,20.43,ESE,103,4.0,14.0,40,0.00,,,0.00,weatherlink.com 1.10,2013-07-10 04:31:00,
2013-07-09 22:46:00,73.5,47.0,20.43,SE,129,4.0,8.0,39,0.00,,,0.00,weatherlink.com 1.10,2013-07-10 04:46:00,
2013-07-09 23:01:00,71.5,48.0,20.43,SSE,151,4.0,9.0,43,0.00,,,0.00,weatherlink.com 1.10,2013-07-10 05:01:00,
2013-07-09 23:16:00,70.3,47.0,20.43,SE,146,3.0,11.0,44,0.00,,,0.00,weatherlink.com 1.10,2013-07-10 05:16:00,
2013-07-09 23:31:00,70.0,48.0,20.43,SSE,150,4.0,10.0,45,0.00,,,0.00,weatherlink.com 1.10,2013-07-10 05:31:00,
2013-07-09 23:46:00,69.3,48.0,20.43,SSE,150,0.0,4.0,46,0.00,,,0.00,weatherlink.com 1.10,2013-07-10 05:46:00,